STARLINK-1233 (45214 NORAD) Tracking and Keplerian Element Data

This shows tracking and keplerian element data for the satellite.

Feedback or suggestion? Click here.




ElementValue
Catalog45214
NameSTARLINK-1233
Epoch Orbit162
Epoch Day93.91667824
Epoch Year2020
RAAN44.434
Inclination52.9975
Eccentricity0.0008276
Argument of Perigee322.257
Mean Anonmoly116.0667
Mean Motion15.62757087
Decay Rate-1.312E-05
L11 45214U 20012AN 20093.91667824 -.00001312 00000-0 -83770-5 0 9997
L22 45214 52.9975 44.4340 0008276 322.2570 116.0667 15.62757087 1622

Live tracking and technical data element details for STARLINK-1233 (NORAD 45214). STARLINK-1233 can be tracked NOW for your location showing map with azimuth and elevation plus other details from your city location.

Track the satellite on the map from your city or location and see movement details for azimuth, elevation, latitude, longitude, range, height, and movement on the map or in text.







IsCatalogInMostPopularTable: catalog: 45214, numindb: 7
Update: records affected: 1



GetName: 45214 STARLINK-1233

Hit Count: updated at: Mon, 06 Apr 2020 12:33:07 GMT